Time,TemperatureF,DewpointF,PressureIn,WindDirection,WindDirectionDegrees,WindSpeedMPH,WindSpeedGustMPH,Humidity,HourlyPrecipIn,Conditions,Clouds,dailyrainin,SolarRadiationWatts/m^2,SoftwareType,DateUTC
2013-07-26 01:00:00,60.0,46.0,-100.00,NNE,22,3.0,-999.0,61,-99.99,,,-99.99,0.000000,,2013-07-26 05:00:00,
2013-07-26 01:43:00,60.0,46.0,-100.00,NNE,22,3.0,-999.0,61,-99.99,,,-99.99,0.000000,,2013-07-26 05:43:00,
2013-07-26 01:52:00,60.0,46.0,-100.00,NNE,22,3.0,-999.0,61,-99.99,,,-99.99,0.000000,,2013-07-26 05:52:00,
2013-07-26 02:00:00,61.0,46.0,-100.00,NNE,22,4.0,-999.0,58,-99.99,,,-99.99,0.000000,,2013-07-26 06:00:00,
2013-07-26 02:43:00,61.0,46.0,-100.00,NNE,22,4.0,-999.0,58,-99.99,,,-99.99,0.000000,,2013-07-26 06:43:00,
2013-07-26 02:52:00,61.0,46.0,-100.00,NNE,22,4.0,-999.0,58,-99.99,,,-99.99,0.000000,,2013-07-26 06:52:00,
2013-07-26 03:00:00,61.0,49.0,-100.00,NNE,22,4.0,-999.0,65,-99.99,,,-99.99,0.000000,,2013-07-26 07:00:00,
2013-07-26 03:43:00,61.0,49.0,-100.00,NNE,22,4.0,-999.0,65,-99.99,,,-99.99,0.000000,,2013-07-26 07:43:00,
2013-07-26 03:53:00,61.0,49.0,-100.00,NNE,22,4.0,-999.0,65,-99.99,,,-99.99,0.000000,,2013-07-26 07:53:00,
2013-07-26 05:00:00,60.0,53.0,-100.00,NNE,22,2.0,-999.0,78,-99.99,,,-99.99,0.000000,,2013-07-26 09:00:00,
2013-07-26 05:43:00,60.0,53.0,-100.00,NNE,22,2.0,-999.0,78,-99.99,,,-99.99,0.000000,,2013-07-26 09:43:00,
2013-07-26 05:52:00,60.0,53.0,-100.00,NNE,22,2.0,-999.0,78,-99.99,,,-99.99,0.000000,,2013-07-26 09:52:00,
2013-07-26 06:00:00,60.0,53.0,-100.00,NNE,22,3.0,-999.0,78,-99.99,,,-99.99,0.000000,,2013-07-26 10:00:00,
2013-07-26 06:43:00,60.0,53.0,-100.00,NNE,22,3.0,-999.0,78,-99.99,,,-99.99,0.000000,,2013-07-26 10:43:00,
2013-07-26 06:53:00,60.0,53.0,-100.00,NNE,22,3.0,-999.0,78,-99.99,,,-99.99,0.000000,,2013-07-26 10:53:00,
2013-07-26 07:00:00,60.0,54.0,-100.00,NE,45,4.0,-999.0,78,-99.99,,,-99.99,4.640000,,2013-07-26 11:00:00,
2013-07-26 07:43:00,60.0,54.0,-100.00,NE,45,4.0,-999.0,78,-99.99,,,-99.99,4.640000,,2013-07-26 11:43:00,
2013-07-26 07:52:00,60.0,54.0,-100.00,NE,45,4.0,-999.0,78,-99.99,,,-99.99,4.640000,,2013-07-26 11:52:00,
2013-07-26 08:00:00,62.0,54.0,-100.00,NE,45,4.0,-999.0,76,-99.99,,,-99.99,53.360001,,2013-07-26 12:00:00,
2013-07-26 08:43:00,62.0,54.0,-100.00,NE,45,4.0,-999.0,76,-99.99,,,-99.99,53.360001,,2013-07-26 12:43:00,
2013-07-26 08:53:00,62.0,54.0,-100.00,NE,45,4.0,-999.0,76,-99.99,,,-99.99,53.360001,,2013-07-26 12:53:00,
2013-07-26 09:00:00,65.0,55.0,-100.00,NE,45,4.0,-999.0,71,-99.99,,,-99.99,117.160004,,2013-07-26 13:00:00,
2013-07-26 09:43:00,65.0,55.0,-100.00,NE,45,4.0,-999.0,71,-99.99,,,-99.99,117.160004,,2013-07-26 13:43:00,
2013-07-26 09:53:00,65.0,55.0,-100.00,NE,45,4.0,-999.0,71,-99.99,,,-99.99,117.160004,,2013-07-26 13:53:00,
2013-07-26 11:00:00,69.0,55.0,-100.00,ENE,67,6.0,-999.0,62,-99.99,,,-99.99,212.279999,,2013-07-26 15:00:00,
2013-07-26 11:43:00,69.0,55.0,-100.00,ENE,67,6.0,-999.0,62,-99.99,,,-99.99,212.279999,,2013-07-26 15:43:00,
2013-07-26 11:53:00,69.0,55.0,-100.00,ENE,67,6.0,-999.0,62,-99.99,,,-99.99,212.279999,,2013-07-26 15:53:00,
2013-07-26 13:00:00,71.0,55.0,-100.00,ENE,67,7.0,-999.0,56,-99.99,,,-99.99,267.959991,,2013-07-26 17:00:00,
2013-07-26 13:43:00,71.0,55.0,-100.00,ENE,67,7.0,-999.0,56,-99.99,,,-99.99,267.959991,,2013-07-26 17:43:00,
2013-07-26 13:53:00,71.0,55.0,-100.00,ENE,67,7.0,-999.0,56,-99.99,,,-99.99,267.959991,,2013-07-26 17:53:00,
2013-07-26 14:00:00,74.0,55.0,-100.00,ENE,67,7.0,-999.0,50,-99.99,,,-99.99,477.920013,,2013-07-26 18:00:00,
2013-07-26 14:44:00,74.0,55.0,-100.00,ENE,67,7.0,-999.0,50,-99.99,,,-99.99,477.920013,,2013-07-26 18:44:00,
2013-07-26 14:53:00,74.0,55.0,-100.00,ENE,67,7.0,-999.0,50,-99.99,,,-99.99,477.920013,,2013-07-26 18:53:00,
2013-07-26 15:00:00,74.0,54.0,-100.00,East,90,8.0,-999.0,49,-99.99,,,-99.99,283.040009,,2013-07-26 19:00:00,
2013-07-26 15:43:00,74.0,54.0,-100.00,East,90,8.0,-999.0,49,-99.99,,,-99.99,283.040009,,2013-07-26 19:43:00,
2013-07-26 15:52:00,74.0,54.0,-100.00,East,90,8.0,-999.0,49,-99.99,,,-99.99,283.040009,,2013-07-26 19:52:00,
2013-07-26 17:00:00,72.0,55.0,-100.00,East,90,6.0,-999.0,55,-99.99,,,-99.99,111.360001,,2013-07-26 21:00:00,
2013-07-26 17:53:00,72.0,55.0,-100.00,East,90,6.0,-999.0,55,-99.99,,,-99.99,111.360001,,2013-07-26 21:53:00,
2013-07-26 19:00:00,73.0,55.0,-100.00,ENE,67,7.0,-999.0,54,-99.99,,,-99.99,84.680000,,2013-07-26 23:00:00,
2013-07-26 19:43:00,73.0,55.0,-100.00,ENE,67,7.0,-999.0,54,-99.99,,,-99.99,84.680000,,2013-07-26 23:43:00,
2013-07-26 19:53:00,73.0,55.0,-100.00,ENE,67,7.0,-999.0,54,-99.99,,,-99.99,84.680000,,2013-07-26 23:53:00,
2013-07-26 20:00:00,69.0,57.0,-100.00,East,90,9.0,-999.0,65,-99.99,,,-99.99,16.240000,,2013-07-27 00:00:00,
2013-07-26 20:43:00,69.0,57.0,-100.00,East,90,9.0,-999.0,65,-99.99,,,-99.99,16.240000,,2013-07-27 00:43:00,
2013-07-26 20:53:00,69.0,57.0,-100.00,East,90,9.0,-999.0,65,-99.99,,,-99.99,16.240000,,2013-07-27 00:53:00,
2013-07-26 21:00:00,67.0,56.0,-100.00,ENE,67,5.0,-999.0,69,-99.99,,,-99.99,6.960000,,2013-07-27 01:00:00,
2013-07-26 22:00:00,67.0,57.0,-100.00,ENE,67,7.0,-999.0,72,-99.99,,,-99.99,0.000000,,2013-07-27 02:00:00,
2013-07-26 22:43:00,67.0,57.0,-100.00,ENE,67,7.0,-999.0,72,-99.99,,,-99.99,0.000000,,2013-07-27 02:43:00,
2013-07-26 22:53:00,67.0,57.0,-100.00,ENE,67,7.0,-999.0,72,-99.99,,,-99.99,0.000000,,2013-07-27 02:53:00,
2013-07-26 23:00:00,66.0,58.0,-100.00,ENE,67,6.0,-999.0,77,-99.99,,,-99.99,0.000000,,2013-07-27 03:00:00,
2013-07-26 23:44:00,66.0,58.0,-100.00,ENE,67,6.0,-999.0,77,-99.99,,,-99.99,0.000000,,2013-07-27 03:44:00,
2013-07-26 23:52:00,66.0,58.0,-100.00,ENE,67,6.0,-999.0,77,-99.99,,,-99.99,0.000000,,2013-07-27 03:52:00,